Theta_e
312 312 311 311 310 310 310 311 311 311 310 308 306 305 305 305 305 307 308 307 306 305 306 306 310 309 314 316 310 318 317 323 332 340 340 335 347 335 325 330 339 344 342 336 336 337 348
312 312 312 311 310 310 310 310 310 310 308 306 305 305 305 305 305 305 305 306 306 306 305 307 312 313 312 304 311 312 314 317 335 335 327 323 325 321 321 320 326 324 331 330 327 329 336
312 311 311 310 310 310 310 310 309 307 306 305 305 306 305 305 305 304 304 305 306 308 309 310 313 313 317 305 312 314 316 318 322 329 323 323 321 321 319 321 319 321 324 325 326 327 336
309 310 310 310 309 308 309 309 308 306 305 305 305 305 305 304 304 304 305 306 308 311 314 315 315 315 308 309 310 311 317 322 321 323 322 324 323 319 320 320 321 323 323 325 326 326 334
310 310 310 309 308 308 308 308 307 305 305 305 305 304 304 303 303 303 307 307 316 316 312 315 315 315 311 316 319 313 313 313 322 323 323 322 320 319 320 320 320 319 324 324 325 324 335
309 309 309 308 308 307 307 306 305 305 304 304 303 303 303 303 303 304 307 314 322 321 318 319 319 317 316 317 322 323 315 313 314 316 319 321 318 318 315 317 319 323 322 323 325 330 337
308 308 308 307 307 306 306 305 304 304 303 303 303 303 302 302 302 305 306 309 305 308 307 321 321 318 318 318 320 319 317 314 316 316 318 318 320 321 318 317 320 321 322 324 324 327 339
308 308 307 307 306 305 305 304 303 303 302 302 302 302 302 302 302 306 308 306 305 304 307 307 307 310 316 315 317 317 316 314 315 317 317 317 322 320 320 318 320 321 322 322 321 323 325
306 305 305 306 305 304 304 304 304 304 303 302 302 302 302 302 302 303 305 305 304 306 304 307 308 310 310 311 314 315 314 315 316 317 319 322 319 321 322 320 320 319 320 321 323 322 326
306 305 305 305 305 304 304 303 303 304 303 303 303 302 302 302 302 302 302 304 303 306 306 311 310 310 312 311 313 316 316 317 318 318 316 317 318 322 320 322 320 319 318 321 321 320 322
305 305 305 305 304 304 303 303 303 303 303 303 302 302 302 302 303 303 303 304 304 303 319 320 311 312 310 313 314 315 318 320 319 318 318 319 318 319 320 321 320 323 320 320 320 319 320
305 305 305 305 304 304 303 303 303 303 303 302 302 302 302 303 303 304 304 304 305 313 318 317 313 313 312 312 313 314 318 319 318 319 320 319 318 320 319 320 320 320 321 317 316 317 321
305 305 305 304 303 303 303 302 302 303 303 302 302 302 303 303 303 305 304 302 307 312 313 317 315 313 313 313 314 314 316 320 321 321 320 320 321 320 319 320 319 320 318 320 320 320 324
305 304 304 304 303 303 303 303 303 303 302 301 302 302 302 304 303 305 305 304 310 312 311 313 314 313 315 314 315 316 315 320 320 320 320 321 322 321 319 320 319 318 316 318 321 320 322
305 304 304 304 303 303 303 304 303 303 302 302 302 302 303 305 303 304 302 306 308 309 312 312 313 315 316 315 315 315 314 318 322 317 322 321 323 320 320 319 321 318 320 316 315 316 317
305 304 304 303 304 303 303 303 303 303 302 302 303 301 302 303 303 304 305 308 308 309 310 310 314 314 315 315 315 314 315 318 320 319 316 318 322 318 322 321 319 317 315 320 312 322 321
304 304 303 303 303 303 303 304 304 303 302 302 302 298 302 303 303 301 303 305 307 308 309 310 310 311 313 314 313 313 316 319 318 319 317 316 314 318 318 321 324 317 317 314 316 314 319
303 304 304 304 304 304 304 304 304 304 302 303 298 299 302 303 299 297 300 303 305 309 307 309 310 312 314 314 315 314 319 319 315 317 321 320 313 318 317 317 319 323 321 314 320 318 312
304 304 304 304 304 304 304 305 305 304 303 304 297 298 303 302 300 300 302 304 306 308 308 308 309 311 312 313 313 317 315 316 314 314 321 318 315 315 316 317 317 317 321 317 319 315 320
304 304 304 304 304 304 305 305 305 303 303 303 297 301 297 297 297 302 304 302 306 307 309 308 308 310 312 312 312 314 316 316 313 316 319 313 313 315 318 318 317 318 318 317 319 322 322
304 304 304 305 304 304 304 304 304 304 303 303 297 298 299 300 300 303 303 302 306 306 306 308 310 310 307 311 311 312 311 312 312 314 311 311 316 315 316 317 318 318 319 318 317 320 321
304 304 304 304 305 305 304 304 304 304 304 303 302 304 302 303 302 304 303 301 304 304 304 305 311 309 307 308 310 310 308 311 312 311 309 308 315 314 317 318 318 318 319 320 320 318 319
302 304 304 304 304 305 304 303 304 304 304 302 303 302 302 305 302 303 302 303 303 302 303 305 306 305 306 306 307 306 305 305 307 311 309 310 313 316 318 317 318 320 319 319 319 318 319
301 301 302 302 304 304 304 304 304 304 304 303 303 302 304 305 305 303 304 303 303 303 305 304 303 304 304 304 304 304 303 305 307 308 307 309 311 314 317 316 321 318 317 319 320 320 319
301 301 301 301 302 304 304 305 305 304 303 304 304 303 304 303 303 303 303 303 302 301 302 302 302 301 301 304 306 305 305 309 308 309 308 309 310 314 316 318 317 317 329 338 338 330 320
300 301 301 301 301 302 304 305 305 304 304 304 304 304 303 304 303 303 303 303 303 302 302 303 301 300 304 302 306 308 307 308 313 314 308 308 309 311 314 320 322 320 336 335 337 335 323
301 301 301 301 301 302 304 305 305 305 304 304 304 303 303 304 302 302 304 303 299 303 303 302 302 302 303 305 307 307 308 310 311 314 311 312 313 313 314 319 318 318 336 337 330 335 341
300 301 301 300 300 301 304 305 305 305 305 304 303 303 303 303 302 301 302 303 302 302 303 303 303 304 307 309 308 309 307 308 309 308 313 311 314 315 314 319 320 332 338 348 339 339 339
300 300 300 300 300 301 304 305 305 305 305 305 304 303 303 303 303 303 302 302 302 301 302 303 304 304 302 306 305 306 308 309 311 312 311 313 316 318 314 316 319 333 336 334 336 336 337
Wind_Speed
22 23 24 24 25 24 25 25 26 27 28 30 33 34 35 35 36 35 34 36 34 31 28 23 17 11 3 3 11 7 6 14 35 28 27 11 15 5 7 5 4 7 9 7 13 7 9
23 23 23 23 24 25 25 26 26 27 30 34 36 37 38 39 41 42 43 41 37 32 28 24 14 5 3 7 9 7 12 18 31 29 15 11 10 7 3 3 7 5 12 15 6 6 6
23 22 23 23 24 25 26 27 27 29 31 34 35 37 39 42 45 45 48 42 35 30 24 19 13 11 3 15 5 9 13 23 33 33 9 15 9 11 6 4 8 6 7 6 8 6 8
23 24 24 24 24 26 26 27 28 31 33 35 36 39 41 44 48 50 42 37 30 16 7 6 15 11 8 8 11 26 12 21 23 32 14 29 17 2 2 2 6 2 1 2 2 7 6
24 24 25 25 26 26 27 28 30 33 34 36 39 42 44 47 49 52 28 28 8 11 9 20 13 5 9 3 7 18 28 11 21 23 23 5 7 6 2 3 4 3 5 6 4 9 3
24 24 25 26 27 28 30 30 32 33 35 37 39 42 45 48 49 44 36 7 7 9 10 2 5 1 5 5 5 7 19 24 5 8 5 6 3 4 3 5 11 5 4 4 4 3 6
23 24 25 26 26 28 29 31 33 34 36 38 40 43 45 50 51 29 33 3 5 2 4 7 4 5 5 4 5 5 9 13 7 5 8 6 5 13 10 6 5 6 4 3 3 2 4
23 23 25 25 27 28 30 32 33 35 37 39 41 43 46 50 44 16 14 6 6 3 12 14 22 17 23 4 4 3 22 8 7 7 9 4 20 10 9 9 8 6 6 7 4 7 2
22 24 25 27 28 29 31 33 34 36 37 39 41 43 46 49 27 17 12 8 14 12 4 9 7 7 7 13 11 8 13 6 6 9 17 18 6 12 12 7 9 6 11 5 4 2 1
24 26 26 28 28 29 30 32 34 35 37 38 40 42 46 53 8 28 11 10 28 4 3 7 5 6 5 9 6 10 18 7 5 21 8 8 6 13 8 12 10 8 8 7 7 4 4
24 25 26 27 29 30 31 32 33 35 36 38 40 42 44 31 15 9 11 26 29 4 6 1 2 8 6 6 0 7 9 2 10 9 9 10 13 15 12 9 8 10 7 8 5 6 2
24 25 26 27 28 30 31 32 33 34 36 38 40 43 46 21 16 15 26 30 3 3 9 4 3 1 3 4 4 3 5 1 6 6 1 9 5 13 11 7 9 7 4 5 5 4 5
24 25 27 28 30 30 31 32 33 35 36 38 41 45 34 15 11 25 23 6 3 5 6 5 4 5 5 4 3 4 10 13 11 7 9 5 16 3 6 7 4 5 8 2 2 3 10
25 26 28 29 30 30 30 31 32 34 37 38 42 41 24 7 27 21 8 3 5 2 4 4 5 7 3 8 4 5 9 16 5 5 6 9 6 16 5 9 9 8 9 6 8 5 6
26 27 28 29 30 30 30 30 32 33 36 37 39 34 11 10 28 13 4 1 4 3 6 10 8 4 4 5 2 4 4 2 7 2 7 8 9 3 7 5 16 6 11 9 4 1 2
27 28 29 29 30 30 29 29 30 32 34 35 31 14 13 15 24 1 4 4 5 7 13 6 4 6 5 6 5 6 5 8 10 7 4 3 2 7 16 6 8 10 8 4 2 6 6
26 27 28 29 29 29 28 27 28 28 30 27 12 4 7 31 5 4 3 5 6 11 12 4 5 6 4 4 5 4 5 6 12 9 7 6 3 2 7 10 20 3 6 3 6 6 6
25 26 27 28 29 29 28 27 26 25 26 15 4 4 17 22 5 2 3 6 8 11 11 5 5 6 4 5 4 4 4 4 11 9 4 1 2 7 6 2 5 21 11 8 6 11 4
25 26 27 28 29 29 29 25 24 20 19 11 3 3 9 10 4 4 6 6 3 9 9 8 5 4 4 4 3 5 4 5 12 9 4 6 2 2 4 5 1 4 13 7 13 3 16
24 24 24 24 24 25 26 23 20 16 15 9 3 5 4 4 2 3 6 5 6 6 4 9 6 6 6 6 5 4 6 5 8 6 7 3 1 4 3 1 3 6 5 8 16 12 18
21 23 24 24 25 25 24 23 19 14 12 5 2 2 2 4 4 5 5 4 7 7 6 4 5 9 5 3 5 3 5 5 4 6 4 4 0 2 2 12 7 11 14 12 10 22 15
21 22 22 23 24 23 22 22 19 14 9 2 1 1 1 4 6 7 3 3 3 5 4 6 1 11 12 3 3 3 6 2 4 5 4 4 2 2 4 9 10 12 13 14 14 10 10
22 22 23 22 21 20 20 20 18 14 7 2 3 3 2 3 3 2 3 4 4 11 9 10 6 11 8 8 3 8 7 8 7 4 3 3 3 2 4 6 12 15 9 15 9 8 12
22 23 22 22 22 21 21 21 19 13 8 6 4 3 3 3 3 4 8 12 13 12 10 14 11 9 4 7 8 6 6 10 11 12 8 2 1 4 4 4 7 4 9 9 14 17 17
22 23 23 22 22 22 21 20 19 17 10 10 12 4 2 5 6 11 14 12 7 6 10 11 13 7 6 4 4 6 3 2 9 18 14 15 5 3 4 6 13 19 4 5 0 8 11
24 24 23 23 23 23 21 20 19 17 13 10 13 13 3 4 5 11 5 9 5 7 6 4 6 7 1 2 0 3 4 4 4 4 13 10 12 2 1 6 7 3 1 6 4 5 6
25 25 25 26 26 26 24 23 21 18 14 10 8 10 6 4 7 8 6 5 3 3 3 5 4 6 2 1 3 4 5 3 4 3 4 6 7 15 11 6 6 5 6 3 5 5 18
27 29 29 29 29 29 27 26 25 22 18 12 10 13 9 3 10 13 14 11 10 5 4 2 4 1 1 3 3 3 4 4 4 6 5 7 8 6 8 6 15 1 0 2 5 11 17
30 31 32 33 32 31 28 27 26 25 22 16 11 13 15 5 6 23 28 31 30 27 8 5 4 2 3 2 3 2 3 2 4 5 6 8 8 4 9 7 7 5 5 4 5 10 12
Wind_Direction
7 7 6 4 3 1 358 354 352 350 351 350 352 352 350 347 344 339 333 330 328 321 315 308 301 307 320 247 247 226 311 134 165 168 164 160 167 175 171 196 203 240 252 248 260 208 199
3 1 1 1 360 359 357 355 353 351 351 351 350 350 349 347 344 341 337 330 322 312 307 297 280 253 198 236 267 232 231 157 170 176 178 161 172 192 223 194 173 224 244 260 278 221 220
3 2 360 360 358 357 356 355 353 354 351 350 349 349 348 346 343 342 336 329 321 309 296 276 236 190 216 232 207 147 184 176 175 179 162 196 174 162 175 309 235 258 284 287 251 259 217
8 7 5 2 359 358 356 353 352 351 350 350 350 349 347 345 343 342 335 335 318 311 285 230 177 169 240 260 238 235 159 189 189 189 183 203 199 146 172 278 352 291 148 246 276 191 261
5 5 1 359 358 359 358 353 351 351 351 350 349 348 347 344 343 342 337 339 33 43 85 127 136 197 258 257 228 235 210 185 174 196 213 163 145 186 149 171 349 331 234 212 302 202 156
1 1 359 359 357 357 354 353 354 354 352 350 348 347 346 343 343 342 342 11 78 80 100 68 101 307 250 220 198 187 190 188 157 125 113 163 129 161 137 154 211 212 217 263 236 203 166
2 2 360 358 358 357 355 355 355 354 353 351 350 349 347 343 344 344 346 53 7 1 341 220 194 272 286 277 271 193 156 151 125 136 154 182 176 212 192 174 176 191 208 201 280 267 142
2 -0 356 359 359 358 357 356 356 355 353 350 349 348 348 342 345 2 30 72 90 279 298 245 246 251 256 345 340 221 146 144 165 174 133 120 223 199 177 192 194 189 232 247 279 276 88
2 360 1 359 357 357 356 354 353 353 350 349 348 348 348 344 346 355 358 98 342 347 244 280 211 224 217 167 220 234 165 154 150 157 186 200 223 169 190 179 186 199 210 179 188 335 341
2 359 358 355 354 354 352 351 350 350 347 345 343 345 347 345 358 334 311 325 337 323 322 272 238 255 140 135 239 198 186 153 166 198 130 213 214 189 178 206 176 220 182 141 160 119 213
357 357 355 354 353 353 353 350 348 349 347 343 339 341 343 348 311 306 316 320 332 151 320 235 185 162 166 194 182 212 170 167 176 166 153 211 179 184 206 199 163 224 150 174 159 187 164
355 355 354 354 353 355 354 353 351 349 346 342 336 337 341 341 315 317 324 319 320 57 249 326 82 63 118 237 298 82 164 219 143 129 296 198 196 191 200 175 173 156 108 62 52 112 234
353 353 352 352 352 353 353 351 349 349 346 342 335 336 341 337 315 326 323 338 73 192 331 0 340 9 350 314 230 141 193 189 173 144 188 177 220 198 152 169 166 137 107 286 283 190 241
350 350 349 349 350 350 350 350 347 347 346 341 335 338 350 354 358 342 345 64 216 236 301 339 339 314 106 353 4 328 160 193 239 121 152 174 220 204 193 187 181 183 146 163 206 210 224
347 346 346 346 347 347 347 347 346 345 345 342 336 340 338 350 349 334 45 181 220 348 359 333 310 48 347 350 17 354 5 244 205 172 171 177 238 256 185 156 166 189 198 171 80 302 30
345 345 346 346 346 344 344 345 344 343 342 343 335 329 308 339 339 329 67 280 299 15 350 333 326 32 16 325 29 31 28 337 338 12 7 248 232 208 203 125 194 159 162 127 24 194 246
344 344 344 344 343 342 341 342 342 342 340 343 339 357 345 343 21 44 74 291 296 353 346 327 348 326 350 9 7 4 358 47 4 340 30 1 131 308 116 199 197 144 182 100 150 161 191
342 344 345 345 344 341 338 338 340 341 342 347 21 340 342 355 49 32 338 314 298 343 340 326 343 34 357 356 350 12 56 46 6 331 14 347 94 222 201 216 242 213 196 152 174 223 241
346 348 347 346 344 344 341 338 340 341 348 338 349 281 344 12 59 341 316 296 349 344 336 355 325 5 346 352 12 23 21 69 13 12 30 332 3 51 54 317 248 183 229 186 217 95 217
345 345 344 345 345 343 346 345 342 342 346 342 28 345 328 33 77 24 336 298 327 336 358 340 308 36 10 7 6 5 357 24 338 11 23 48 78 110 230 235 353 307 313 204 210 225 230
343 345 345 344 344 346 348 349 351 346 344 341 36 287 230 317 340 319 322 277 310 352 343 60 327 15 1 341 339 25 3 336 322 10 35 76 289 344 245 286 258 246 257 265 247 225 221
344 345 344 346 346 344 347 349 351 347 341 306 281 291 336 285 291 309 315 286 314 345 310 312 296 339 331 295 330 308 12 333 270 342 30 356 265 29 280 272 306 288 267 257 246 236 263
344 343 343 342 341 342 340 343 347 346 337 282 273 262 182 252 265 310 250 264 309 326 290 253 338 322 319 307 310 256 226 242 243 284 348 323 163 54 264 313 318 293 252 238 226 195 216
341 341 341 343 341 342 340 339 339 342 313 255 266 278 259 284 276 282 273 289 287 290 280 286 303 290 277 339 299 276 232 233 248 240 190 208 241 165 244 335 249 260 295 269 251 223 211
338 337 338 336 335 335 334 332 332 331 324 264 268 222 257 278 267 283 271 286 299 304 280 257 271 260 308 305 331 332 324 261 237 234 217 205 192 250 202 211 294 307 335 33 353 283 236
334 334 332 330 328 324 324 322 323 325 326 298 284 259 251 283 234 257 295 296 289 289 298 280 318 315 145 81 73 239 240 255 280 267 224 192 211 247 162 213 223 221 219 284 173 255 304
332 331 331 328 325 321 315 314 313 308 306 297 269 258 243 254 251 238 245 268 197 265 265 282 314 326 69 204 238 234 248 240 245 244 156 166 191 218 235 260 280 251 294 316 203 289 323
328 327 328 327 324 321 312 306 303 303 292 283 264 260 233 252 271 250 246 245 253 241 237 296 328 231 234 223 240 228 232 239 264 225 189 175 178 189 214 236 244 313 47 176 324 307 307
326 327 327 325 325 322 313 305 301 295 294 280 268 266 250 237 260 280 263 248 234 230 236 202 229 213 239 234 257 271 269 262 246 260 222 227 215 199 198 214 221 171 231 245 285 316 305